Regional Weather Roundup
Issued by NWS

Home | Current Version | Previous Version | Graphics & Text | Print | Product List | Glossary On
Versions: 1 2 3 4 5 6 7 8 9 10 11 12 13 14 15 16 17 18 19 20 21 22 23 24 25 26 27
000
ASUS45 KTFX 160610
RWRMT
MONTANA REGIONAL WEATHER ROUNDUP
NATIONAL WEATHER SERVICE GREAT FALLS MT
1200 AM MDT MON OCT 16 2017

NOTE: "FAIR" INDICATES FEW OR NO CLOUDS BELOW 12000 FEET WITH NO
SIGNIFICANT WEATHER AND/OR OBSTRUCTIONS TO VISIBILITY.

MTZ001>007-043-160700-
WEST OF THE DIVIDE

CITY           SKY/WX    TMP DP  RH WIND       PRES   REMARKS
KALISPELL      CLEAR     30  29  96 VRB3      30.21S
MISSOULA       CLEAR     37  33  85 CALM      30.25S
BUTTE          CLOUDY    33  27  78 SW3       30.28F
MULLAN PASS    CLEAR     39  21  48 VRB7G16   30.27F
ANACONDA         N/A     43  27  52 S7        30.25F
DEER LODGE       N/A     39  28  65 SW5       30.25F
EUREKA           N/A     39  34  81 MISG      30.20S
HAMILTON         N/A     45  30  57 SE7       30.26S
LIBBY            N/A     34  32  93 CALM      30.23S
PLAINS           N/A     35  29  79 CALM      30.24S
$$

MTZ008-052>055-160700-
SOUTHWEST MONTANA

CITY           SKY/WX    TMP DP  RH WIND       PRES   REMARKS
BOZEMAN        CLOUDY    36  29  75 S9        30.25S WCI  29
DILLON         CLOUDY    42  23  46 S10       30.30S
W YELLOWSTONE  CLOUDY    25  21  86 CALM      30.42F
ENNIS          CLOUDY    43  23  45 SW13      30.36S
$$

MTZ009-010-012-014-046-048-049-054-160700-
EAST SLOPES AND CENTRAL MONTANA

CITY           SKY/WX    TMP DP  RH WIND       PRES   REMARKS
CUT BANK       MOCLDY    51  33  50 SW31G39   30.04
GREAT FALLS    CLOUDY    54  30  40 SW16      30.10F
MALMSTROM AFB  CLOUDY    48  32  53 SW10      30.10S
HELENA         CLOUDY    44  33  65 CALM      30.19F
BOWMANS CRNR     N/A     51  29  41 SW21      30.11F
CHOTEAU          N/A     50  30  46 SW7       30.12S
FAIRFIELD        N/A     50  31  48 SW15      30.09F
POWER            N/A     49  31  49 SW15      30.08F
RAYNESFORD       N/A     57  29  33 W18G29    30.11F
ULM              N/A     52  32  45 SW13      30.12F
$$

MTZ011-013-016-021-045-047-050-051-160700-
NORTH CENTRAL MONTANA

CITY           SKY/WX    TMP DP  RH WIND       PRES   REMARKS
HAVRE          CLEAR     48  34  58 SW14      30.00F
N BAR RANCH      N/A     46  27  46 VRB7      30.13F
CHINOOK          N/A     55  32  41 W14       29.97F
DENTON           N/A     49  31  49 SW5       30.05F
GEYSER           N/A     53  30  41 W24G36    30.07S
GRASS RANGE      N/A     50  30  45 W20       30.05F
JUDITH GAP       N/A     52  28  39 S17G25    30.15F
WINIFRED         N/A     49  32  50 SW9       30.08F
$$

MTZ017>020-022>027-061-062-160700-
NORTHEAST MONTANA

CITY           SKY/WX    TMP DP  RH WIND       PRES   REMARKS
GLASGOW        CLEAR     45  32  60 S5        29.99F
JORDAN           N/A     37  32  82 W5        30.04F
SIDNEY         CLEAR     39  30  70 SW10      30.07F
WOLF POINT     CLOUDY    39  29  67 CALM      30.02F
MALTA          CLEAR     34  32  93 CALM      29.98F
PLENTYWOOD       N/A     39  28  65 CALM      30.00F
POPLAR           N/A     43  28  56 CALM      30.02F
SCOBEY           N/A     41  24  51 SE6       29.97F
$$

MTZ028>42-056>058-160700-
SOUTHCENTRAL AND SOUTHEAST MONTANA

CITY           SKY/WX    TMP DP  RH WIND       PRES   REMARKS
BAKER          CLEAR     47  30  51 SW13      30.14F
BILLINGS       CLEAR     52  27  38 W18       30.15F
LIVINGSTON     CLOUDY    51  26  37 W26G38    30.21S
MILES CITY     CLEAR     39  31  72 S9        30.11F
BIG TIMBER     CLEAR     50  25  37 W15G22    30.22F
EKALAKA          N/A     53  24  32 SE6       30.12F
FORSYTH          N/A     52  27  37 W5        30.12F
HARLOWTON        N/A     49  28  44 MISG      30.15F
LAUREL           N/A     52  25  35 SW17      30.17F
$$

REGIONAL REPORTS...DAKOTAS

CITY           SKY/WX    TMP DP  RH WIND       PRES   REMARKS
WILLISTON      CLEAR     35  29  78 S3        30.05F
MINOT          PTCLDY    43  31  62 SW9       30.06F
DICKINSON      CLEAR     34  27  75 S10       30.11F WCI  26
BEACH            N/A     39  28  65 SW9       30.14F
CROSBY           N/A     37  30  75 S13       30.01F WCI  29
TIOGA            N/A     39  28  65 SW10      30.06F
BISMARCK       CLEAR     34  29  82 CALM      30.17F
GRAND FORKS    CLOUDY    32  30  92 SW9       30.12F WCI  24
FARGO          CLEAR     33  30  88 SW7       30.16F WCI  27
BUFFALO SD       N/A     40  27  59 SW7       30.12F
RAPID CITY     CLEAR     39  28  64 CALM      30.25F
$$

REGIONAL REPORTS...WYOMING/IDAHO/WASHINGTON

CITY           SKY/WX    TMP DP  RH WIND       PRES   REMARKS
GILLETTE       CLEAR     39  28  64 SE6       30.23F
SHERIDAN       CLOUDY    32  26  78 CALM      30.20F
BUFFALO WY     CLOUDY    41  20  43 W8        30.24F
CODY           CLOUDY    52  24  33 SW5       30.27F
YELLOWSTONE LA   N/A     24  23  96 CALM      30.46F
IDAHO FALLS    CLOUDY    32  26  78 N6        30.40F WCI  26
SALMON         CLEAR     33  27  78 CALM      30.35S
BOISE          CLEAR     42  28  57 VRB3      30.35S
SPOKANE        PTCLDY    44  32  62 S8        30.25S
$$

REGIONAL REPORTS...ALBERTA

CITY           SKY/WX    TMP DP  RH WIND       PRES   REMARKS
EDMONTON       CLEAR     43  30  61 W9        29.74S
CALGARY        PTCLDY    54  21  28 W17G28    29.87R
LETHBRIDGE     CLEAR     52  32  46 W18G25    29.96R
MEDICINE HAT   CLEAR     48  34  57 S12       29.87F
$$

REGIONAL REPORTS...SASKATCHEWAN

CITY           SKY/WX    TMP DP  RH WIND       PRES   REMARKS
SWIFT CURRENT  CLEAR     46  32  57 SW20G29   29.84F
REGINA         CLEAR     39  27  60 S13       29.88F WCI  32
SASKATOON      PTCLDY    41  30  65 S8        29.77F
$$




USA.gov is the U.S. government's official web portal to all federal, state and local government web resources and services.